Time,TemperatureF,DewpointF,PressureIn,WindDirection,WindDirectionDegrees,WindSpeedMPH,WindSpeedGustMPH,Humidity,HourlyPrecipIn,Conditions,Clouds,dailyrainin,SoftwareType,DateUTC
2013-01-22 00:03:00,71.1,64.2,29.29,South,180,0.0,0.0,79,0.00,RA,OVC,0.00,WeatherDisplay:10.37,2013-01-21 13:03:00,
2013-01-22 00:08:00,70.9,64.0,29.29,SW,225,0.0,0.0,79,0.00,RA,OVC,0.00,WeatherDisplay:10.37,2013-01-21 13:08:00,
2013-01-22 00:13:00,70.9,64.0,29.29,SSE,158,0.0,0.0,79,0.00,CLR,OVC,0.00,WeatherDisplay:10.37,2013-01-21 13:13:00,
2013-01-22 00:18:00,70.9,64.0,29.29,SSW,202,0.0,0.0,79,0.00,CLR,OVC,0.00,WeatherDisplay:10.37,2013-01-21 13:18:00,
2013-01-22 00:23:00,70.7,64.2,29.29,West,270,0.0,0.0,80,0.00,CLR,OVC,0.00,WeatherDisplay:10.37,2013-01-21 13:23:00,
2013-01-22 00:28:00,70.7,64.2,29.29,WSW,248,0.0,0.0,80,0.00,CLR,OVC,0.00,WeatherDisplay:10.37,2013-01-21 13:28:00,
2013-01-22 00:33:00,70.5,64.0,29.26,WSW,248,0.0,0.0,80,0.00,CLR,OVC,0.00,WeatherDisplay:10.37,2013-01-21 13:33:00,
2013-01-22 00:38:00,70.3,63.9,29.26,SW,225,0.0,0.0,80,0.00,CLR,OVC,0.00,WeatherDisplay:10.37,2013-01-21 13:38:00,
2013-01-22 00:43:00,70.2,63.7,29.26,South,180,0.0,0.0,80,0.00,CLR,OVC,0.00,WeatherDisplay:10.37,2013-01-21 13:43:00,
2013-01-22 00:48:00,70.2,63.7,29.26,South,180,0.0,0.0,80,0.00,CLR,OVC,0.00,WeatherDisplay:10.37,2013-01-21 13:48:00,
2013-01-22 00:53:00,70.0,63.9,29.26,East,90,0.0,0.0,81,0.00,CLR,OVC,0.00,WeatherDisplay:10.37,2013-01-21 13:53:00,
2013-01-22 00:58:00,70.0,63.9,29.26,East,90,0.0,0.0,81,0.00,CLR,OVC,0.00,WeatherDisplay:10.37,2013-01-21 13:58:00,
2013-01-22 01:03:00,69.8,63.3,29.29,West,270,0.0,0.0,80,0.00,CLR,OVC,0.00,WeatherDisplay:10.37,2013-01-21 14:03:00,
2013-01-22 01:08:00,69.8,63.3,29.29,West,270,0.0,0.0,80,0.00,CLR,OVC,0.00,WeatherDisplay:10.37,2013-01-21 14:08:00,
2013-01-22 01:13:00,69.6,63.5,29.29,West,270,0.0,0.0,81,0.00,CLR,OVC,0.00,WeatherDisplay:10.37,2013-01-21 14:13:00,
2013-01-22 01:18:00,69.6,63.5,29.26,South,180,0.0,0.0,81,0.00,CLR,OVC,0.00,WeatherDisplay:10.37,2013-01-21 14:18:00,
2013-01-22 01:23:00,69.4,63.4,29.26,South,180,0.0,0.0,81,0.00,CLR,OVC,0.00,WeatherDisplay:10.37,2013-01-21 14:23:00,
2013-01-22 01:28:00,69.4,63.7,29.26,SE,135,0.0,0.0,82,0.00,CLR,OVC,0.00,WeatherDisplay:10.37,2013-01-21 14:28:00,
2013-01-22 01:33:00,69.3,63.2,29.26,SW,225,0.0,0.0,81,0.00,CLR,OVC,0.00,WeatherDisplay:10.37,2013-01-21 14:33:00,
2013-01-22 01:38:00,69.1,63.0,29.26,South,180,0.0,0.0,81,0.00,CLR,OVC,0.00,WeatherDisplay:10.37,2013-01-21 14:38:00,
2013-01-22 01:43:00,69.1,63.0,29.26,South,180,0.0,0.0,81,0.00,CLR,OVC,0.00,WeatherDisplay:10.37,2013-01-21 14:43:00,
2013-01-22 01:48:00,68.9,63.2,29.26,South,180,0.0,0.0,82,0.00,CLR,OVC,0.00,WeatherDisplay:10.37,2013-01-21 14:48:00,
2013-01-22 01:53:00,68.9,63.5,29.26,East,90,0.0,0.0,83,0.00,CLR,OVC,0.00,WeatherDisplay:10.37,2013-01-21 14:53:00,
2013-01-22 01:58:00,68.7,63.0,29.26,SSW,202,0.0,0.0,82,0.00,CLR,OVC,0.00,WeatherDisplay:10.37,2013-01-21 14:58:00,
2013-01-22 02:03:00,68.7,63.0,29.26,South,180,0.0,0.0,82,0.00,CLR,OVC,0.00,WeatherDisplay:10.37,2013-01-21 15:03:00,
2013-01-22 02:08:00,68.7,63.3,29.26,East,90,0.0,0.0,83,0.00,CLR,OVC,0.00,WeatherDisplay:10.37,2013-01-21 15:08:00,
2013-01-22 02:13:00,68.7,63.7,29.26,ENE,68,0.0,0.0,84,0.00,CLR,OVC,0.00,WeatherDisplay:10.37,2013-01-21 15:13:00,
2013-01-22 02:18:00,68.7,63.7,29.26,ENE,68,0.0,0.0,84,0.00,CLR,OVC,0.00,WeatherDisplay:10.37,2013-01-21 15:18:00,
2013-01-22 02:23:00,68.7,63.7,29.26,ENE,68,0.0,0.0,84,0.00,CLR,OVC,0.00,WeatherDisplay:10.37,2013-01-21 15:23:00,
2013-01-22 02:28:00,68.9,64.2,29.26,ENE,68,0.0,0.0,85,0.00,CLR,OVC,0.00,WeatherDisplay:10.37,2013-01-21 15:28:00,
2013-01-22 02:33:00,68.9,64.2,29.26,East,90,1.2,0.0,85,0.00,CLR,OVC,0.00,WeatherDisplay:10.37,2013-01-21 15:33:00,
2013-01-22 02:38:00,68.9,64.2,29.26,SE,135,0.0,0.0,85,0.00,CLR,OVC,0.00,WeatherDisplay:10.37,2013-01-21 15:38:00,
2013-01-22 02:43:00,68.9,64.5,29.26,SE,135,0.0,0.0,86,0.00,CLR,OVC,0.00,WeatherDisplay:10.37,2013-01-21 15:43:00,
2013-01-22 02:48:00,68.9,64.5,29.26,SE,135,0.0,0.0,86,0.00,CLR,OVC,0.00,WeatherDisplay:10.37,2013-01-21 15:48:00,
2013-01-22 02:53:00,68.9,64.5,29.26,SE,135,0.0,0.0,86,0.00,CLR,OVC,0.00,WeatherDisplay:10.37,2013-01-21 15:53:00,
2013-01-22 02:58:00,68.7,64.4,29.26,ENE,68,0.0,0.0,86,0.00,CLR,OVC,0.00,WeatherDisplay:10.37,2013-01-21 15:58:00,
2013-01-22 03:03:00,68.7,64.4,29.26,ENE,68,0.0,0.0,86,0.00,CLR,OVC,0.00,WeatherDisplay:10.37,2013-01-21 16:03:00,
2013-01-22 03:08:00,68.7,64.4,29.26,ENE,68,0.0,0.0,86,0.00,CLR,OVC,0.00,WeatherDisplay:10.37,2013-01-21 16:08:00,
2013-01-22 03:13:00,68.7,64.4,29.26,ENE,68,0.0,0.0,86,0.00,CLR,OVC,0.00,WeatherDisplay:10.37,2013-01-21 16:13:00,
2013-01-22 03:18:00,68.7,64.4,29.26,WNW,292,0.0,0.0,86,0.00,CLR,OVC,0.00,WeatherDisplay:10.37,2013-01-21 16:18:00,
2013-01-22 03:23:00,68.7,64.4,29.26,NW,315,0.0,0.0,86,0.00,CLR,OVC,0.00,WeatherDisplay:10.37,2013-01-21 16:23:00,
2013-01-22 03:28:00,68.7,64.4,29.26,NNE,22,0.0,0.0,86,0.00,CLR,OVC,0.00,WeatherDisplay:10.37,2013-01-21 16:28:00,
2013-01-22 03:33:00,68.7,64.4,29.26,NNE,22,0.0,0.0,86,0.00,CLR,OVC,0.00,WeatherDisplay:10.37,2013-01-21 16:33:00,
2013-01-22 03:38:00,68.7,64.7,29.26,NE,45,0.0,0.0,87,0.00,CLR,OVC,0.00,WeatherDisplay:10.37,2013-01-21 16:38:00,
2013-01-22 03:43:00,68.7,64.7,29.26,ENE,68,0.0,0.0,87,0.00,CLR,OVC,0.00,WeatherDisplay:10.37,2013-01-21 16:43:00,
2013-01-22 03:48:00,68.7,64.7,29.26,NE,45,0.0,0.0,87,0.00,CLR,OVC,0.00,WeatherDisplay:10.37,2013-01-21 16:48:00,
2013-01-22 03:53:00,68.7,64.7,29.26,SW,225,0.0,0.0,87,0.00,CLR,OVC,0.00,WeatherDisplay:10.37,2013-01-21 16:53:00,
2013-01-22 03:58:00,68.7,64.7,29.26,East,90,0.0,0.0,87,0.00,CLR,OVC,0.00,WeatherDisplay:10.37,2013-01-21 16:58:00,
2013-01-22 04:03:00,68.5,64.5,29.24,ENE,68,0.0,0.0,87,0.00,CLR,OVC,0.00,WeatherDisplay:10.37,2013-01-21 17:03:00,
2013-01-22 04:08:00,68.5,64.5,29.24,NW,315,0.0,0.0,87,0.00,CLR,OVC,0.00,WeatherDisplay:10.37,2013-01-21 17:08:00,
2013-01-22 04:13:00,68.5,64.5,29.24,NE,45,0.0,0.0,87,0.00,CLR,OVC,0.00,WeatherDisplay:10.37,2013-01-21 17:13:00,
2013-01-22 04:18:00,68.5,64.5,29.24,NE,45,0.0,0.0,87,0.00,CLR,OVC,0.00,WeatherDisplay:10.37,2013-01-21 17:18:00,
2013-01-22 04:23:00,68.7,64.7,29.24,NW,315,0.0,0.0,87,0.00,CLR,OVC,0.00,WeatherDisplay:10.37,2013-01-21 17:23:00,
2013-01-22 04:28:00,68.7,64.7,29.24,NNE,22,0.0,0.0,87,0.00,CLR,OVC,0.00,WeatherDisplay:10.37,2013-01-21 17:28:00,
2013-01-22 04:33:00,68.7,64.7,29.24,NE,45,0.0,0.0,87,0.00,CLR,OVC,0.00,WeatherDisplay:10.37,2013-01-21 17:33:00,
2013-01-22 04:38:00,68.7,64.7,29.24,North,0,0.0,0.0,87,0.00,CLR,OVC,0.00,WeatherDisplay:10.37,2013-01-21 17:38:00,
2013-01-22 04:43:00,68.7,64.7,29.24,NNE,22,0.0,0.0,87,0.00,CLR,OVC,0.00,WeatherDisplay:10.37,2013-01-21 17:43:00,
2013-01-22 04:48:00,68.7,64.7,29.24,NNE,22,0.0,0.0,87,0.00,CLR,OVC,0.00,WeatherDisplay:10.37,2013-01-21 17:48:00,
2013-01-22 04:53:00,68.7,65.0,29.24,North,0,0.0,0.0,88,0.00,CLR,OVC,0.00,WeatherDisplay:10.37,2013-01-21 17:53:00,
2013-01-22 04:58:00,68.7,65.0,29.24,North,0,0.0,0.0,88,0.00,CLR,OVC,0.00,WeatherDisplay:10.37,2013-01-21 17:58:00,
2013-01-22 05:03:00,68.7,65.0,29.24,NNE,22,0.0,0.0,88,0.00,CLR,OVC,0.00,WeatherDisplay:10.37,2013-01-21 18:03:00,
2013-01-22 05:08:00,68.7,65.0,29.24,East,90,0.0,0.0,88,0.00,CLR,OVC,0.00,WeatherDisplay:10.37,2013-01-21 18:08:00,
2013-01-22 05:13:00,68.7,65.0,29.24,East,90,0.0,0.0,88,0.00,CLR,OVC,0.00,WeatherDisplay:10.37,2013-01-21 18:13:00,
2013-01-22 05:18:00,68.7,65.0,29.24,East,90,0.0,0.0,88,0.00,CLR,OVC,0.00,WeatherDisplay:10.37,2013-01-21 18:18:00,
2013-01-22 05:23:00,68.7,65.0,29.24,WNW,292,0.0,0.0,88,0.00,CLR,OVC,0.00,WeatherDisplay:10.37,2013-01-21 18:23:00,
2013-01-22 05:28:00,68.7,65.0,29.24,East,90,0.0,0.0,88,0.00,CLR,OVC,0.00,WeatherDisplay:10.37,2013-01-21 18:28:00,
2013-01-22 05:33:00,68.7,65.0,29.24,NE,45,0.0,0.0,88,0.00,CLR,OVC,0.00,WeatherDisplay:10.37,2013-01-21 18:33:00,
2013-01-22 05:38:00,68.7,64.7,29.24,WNW,292,0.0,0.0,87,0.00,CLR,OVC,0.00,WeatherDisplay:10.37,2013-01-21 18:38:00,
2013-01-22 05:43:00,68.7,64.7,29.24,WSW,248,0.0,0.0,87,0.00,CLR,OVC,0.00,WeatherDisplay:10.37,2013-01-21 18:43:00,
2013-01-22 05:48:00,68.7,64.4,29.26,West,270,0.0,0.0,86,0.00,CLR,OVC,0.00,WeatherDisplay:10.37,2013-01-21 18:48:00,
2013-01-22 05:53:00,68.7,64.4,29.26,West,270,0.0,0.0,86,0.00,CLR,OVC,0.00,WeatherDisplay:10.37,2013-01-21 18:53:00,
2013-01-22 05:58:00,68.7,64.7,29.26,NNE,22,0.0,0.0,87,0.00,CLR,OVC,0.00,WeatherDisplay:10.37,2013-01-21 18:58:00,
2013-01-22 06:03:00,68.7,64.7,29.26,West,270,0.0,0.0,87,0.00,CLR,OVC,0.00,WeatherDisplay:10.37,2013-01-21 19:03:00,
2013-01-22 06:08:00,68.7,64.7,29.26,NNE,22,0.0,0.0,87,0.00,CLR,OVC,0.00,WeatherDisplay:10.37,2013-01-21 19:08:00,
2013-01-22 06:13:00,68.7,64.7,29.26,NNE,22,0.0,0.0,87,0.00,CLR,OVC,0.00,WeatherDisplay:10.37,2013-01-21 19:13:00,
2013-01-22 06:18:00,68.7,64.7,29.26,ESE,112,0.0,0.0,87,0.00,CLR,OVC,0.00,WeatherDisplay:10.37,2013-01-21 19:18:00,
2013-01-22 06:23:00,68.7,64.7,29.26,South,180,0.0,0.0,87,0.00,CLR,OVC,0.00,WeatherDisplay:10.37,2013-01-21 19:23:00,
2013-01-22 06:28:00,68.9,65.2,29.26,ENE,68,0.0,0.0,88,0.00,CLR,OVC,0.00,WeatherDisplay:10.37,2013-01-21 19:28:00,
2013-01-22 06:33:00,68.9,65.2,29.26,ENE,68,0.0,0.0,88,0.00,CLR,OVC,0.00,WeatherDisplay:10.37,2013-01-21 19:33:00,
2013-01-22 06:38:00,68.9,65.2,29.26,ENE,68,0.0,0.0,88,0.00,CLR,OVC,0.00,WeatherDisplay:10.37,2013-01-21 19:38:00,
2013-01-22 06:43:00,68.9,65.2,29.26,ENE,68,0.0,0.0,88,0.00,CLR,OVC,0.00,WeatherDisplay:10.37,2013-01-21 19:43:00,
2013-01-22 06:48:00,69.1,65.0,29.26,WNW,292,2.3,0.0,87,0.00,CLR,OVC,0.00,WeatherDisplay:10.37,2013-01-21 19:48:00,
2013-01-22 06:53:00,69.3,65.2,29.26,North,0,0.0,0.0,87,0.00,CLR,OVC,0.00,WeatherDisplay:10.37,2013-01-21 19:53:00,
2013-01-22 06:58:00,69.3,65.6,29.26,NNE,22,0.0,0.0,88,0.00,CLR,OVC,0.00,WeatherDisplay:10.37,2013-01-21 19:58:00,
2013-01-22 07:03:00,69.3,65.6,29.29,NNW,338,0.0,0.0,88,0.00,CLR,OVC,0.00,WeatherDisplay:10.37,2013-01-21 20:03:00,
2013-01-22 07:08:00,69.4,65.7,29.29,West,270,0.0,0.0,88,0.00,CLR,OVC,0.00,WeatherDisplay:10.37,2013-01-21 20:08:00,
2013-01-22 07:13:00,69.4,65.7,29.29,West,270,0.0,0.0,88,0.00,CLR,OVC,0.00,WeatherDisplay:10.37,2013-01-21 20:13:00,
2013-01-22 07:18:00,69.4,65.7,29.29,West,270,0.0,0.0,88,0.00,CLR,OVC,0.00,WeatherDisplay:10.37,2013-01-21 20:18:00,
2013-01-22 07:23:00,69.6,65.9,29.29,West,270,0.0,0.0,88,0.00,CLR,OVC,0.00,WeatherDisplay:10.37,2013-01-21 20:23:00,
2013-01-22 07:28:00,69.8,65.8,29.29,East,90,0.0,0.0,87,0.00,CLR,OVC,0.00,WeatherDisplay:10.37,2013-01-21 20:28:00,
2013-01-22 07:34:00,69.8,65.8,29.29,SSE,158,0.0,0.0,87,0.00,CLR,OVC,0.00,WeatherDisplay:10.37,2013-01-21 20:34:00,
2013-01-22 07:39:00,70.2,66.1,29.29,NE,45,0.0,0.0,87,0.00,CLR,OVC,0.00,WeatherDisplay:10.37,2013-01-21 20:39:00,
2013-01-22 07:44:00,70.3,66.3,29.29,NE,45,0.0,0.0,87,0.00,CLR,OVC,0.00,WeatherDisplay:10.37,2013-01-21 20:44:00,
2013-01-22 07:49:00,70.5,66.5,29.29,NNE,22,0.0,0.0,87,0.00,CLR,OVC,0.00,WeatherDisplay:10.37,2013-01-21 20:49:00,
2013-01-22 07:54:00,70.7,66.6,29.29,WNW,292,0.0,0.0,87,0.00,CLR,OVC,0.00,WeatherDisplay:10.37,2013-01-21 20:54:00,
2013-01-22 07:59:00,70.9,66.5,29.29,ENE,68,0.0,0.0,86,0.00,CLR,OVC,0.00,WeatherDisplay:10.37,2013-01-21 20:59:00,
2013-01-22 08:04:00,70.9,66.1,29.29,NNW,338,0.0,0.0,85,0.00,CLR,OVC,0.00,WeatherDisplay:10.37,2013-01-21 21:04:00,
2013-01-22 08:09:00,71.1,66.3,29.29,East,90,0.0,0.0,85,0.00,CLR,OVC,0.00,WeatherDisplay:10.37,2013-01-21 21:09:00,
2013-01-22 08:14:00,71.8,67.4,29.29,NNE,22,1.2,0.0,86,0.00,CLR,OVC,0.00,WeatherDisplay:10.37,2013-01-21 21:14:00,
2013-01-22 08:19:00,72.7,67.9,29.29,NNE,22,0.0,0.0,85,0.00,CLR,OVC,0.00,WeatherDisplay:10.37,2013-01-21 21:19:00,
2013-01-22 08:24:00,73.2,68.1,29.29,NE,45,2.3,2.3,84,0.00,CLR,OVC,0.00,WeatherDisplay:10.37,2013-01-21 21:24:00,
2013-01-22 08:29:00,73.9,68.4,29.29,NNW,338,2.3,2.4,83,0.00,CLR,OVC,0.00,WeatherDisplay:10.37,2013-01-21 21:29:00,
2013-01-22 08:34:00,74.3,68.1,29.29,NNE,22,0.0,0.0,81,0.00,CLR,OVC,0.00,WeatherDisplay:10.37,2013-01-21 21:34:00,
2013-01-22 08:39:00,74.7,68.4,29.29,ENE,68,2.3,0.0,81,0.00,CLR,OVC,0.00,WeatherDisplay:10.37,2013-01-21 21:39:00,
2013-01-22 08:44:00,75.6,69.0,29.29,NNE,22,2.3,2.3,80,0.00,CLR,OVC,0.00,WeatherDisplay:10.37,2013-01-21 21:44:00,
2013-01-22 08:49:00,76.6,69.3,29.29,NNW,338,0.0,0.0,78,0.00,CLR,OVC,0.00,WeatherDisplay:10.37,2013-01-21 21:49:00,
2013-01-22 08:54:00,77.5,69.8,29.29,WNW,292,1.2,0.0,77,0.00,CLR,OVC,0.00,WeatherDisplay:10.37,2013-01-21 21:54:00,
2013-01-22 08:59:00,78.3,70.1,29.29,WNW,292,1.4,0.0,76,0.00,CLR,OVC,0.00,WeatherDisplay:10.37,2013-01-21 21:59:00,
2013-01-22 09:04:00,79.0,69.6,29.29,North,0,2.3,2.3,73,0.00,CLR,OVC,0.00,WeatherDisplay:10.37,2013-01-21 22:04:00,
2013-01-22 09:09:00,79.3,69.5,29.29,West,270,0.0,0.0,72,0.00,CLR,OVC,0.00,WeatherDisplay:10.37,2013-01-21 22:09:00,
2013-01-22 09:14:00,80.4,70.2,29.29,NE,45,3.5,3.5,71,0.00,CLR,OVC,0.00,WeatherDisplay:10.37,2013-01-21 22:14:00,
2013-01-22 09:19:00,81.1,70.0,29.26,SE,135,2.3,0.0,69,0.00,CLR,OVC,0.00,WeatherDisplay:10.37,2013-01-21 22:19:00,
2013-01-22 09:24:00,81.5,69.9,29.26,SW,225,2.3,2.3,68,0.00,CLR,OVC,0.00,WeatherDisplay:10.37,2013-01-21 22:24:00,
2013-01-22 09:29:00,82.4,70.3,29.26,NNE,22,3.5,3.5,67,0.00,CLR,OVC,0.00,WeatherDisplay:10.37,2013-01-21 22:29:00,
2013-01-22 09:34:00,82.9,70.4,29.26,ESE,112,2.3,2.3,66,0.00,CLR,OVC,0.00,WeatherDisplay:10.37,2013-01-21 22:34:00,
2013-01-22 09:39:00,84.0,71.4,29.26,NNE,22,2.3,2.3,66,0.00,CLR,OVC,0.00,WeatherDisplay:10.37,2013-01-21 22:39:00,
2013-01-22 09:44:00,84.6,70.6,29.26,East,90,2.9,0.0,63,0.00,CLR,OVC,0.00,WeatherDisplay:10.37,2013-01-21 22:44:00,
2013-01-22 09:49:00,85.1,70.1,29.26,NNE,22,3.5,3.5,61,0.00,CLR,OVC,0.00,WeatherDisplay:10.37,2013-01-21 22:49:00,
2013-01-22 09:54:00,85.6,70.2,29.26,NE,45,3.6,3.6,60,0.00,CLR,OVC,0.00,WeatherDisplay:10.37,2013-01-21 22:54:00,
2013-01-22 09:59:00,86.2,69.2,29.26,NE,45,3.5,3.5,57,0.00,CLR,OVC,0.00,WeatherDisplay:10.37,2013-01-21 22:59:00,
2013-01-22 10:04:00,86.5,68.5,29.26,NNE,22,5.8,5.8,55,0.00,CLR,OVC,0.00,WeatherDisplay:10.37,2013-01-21 23:04:00,
2013-01-22 10:09:00,87.1,68.4,29.26,NE,45,3.5,3.5,54,0.00,CLR,OVC,0.00,WeatherDisplay:10.37,2013-01-21 23:09:00,
2013-01-22 10:14:00,87.6,67.8,29.26,NE,45,3.5,3.5,52,0.00,CLR,OVC,0.00,WeatherDisplay:10.37,2013-01-21 23:14:00,
2013-01-22 10:19:00,88.0,67.6,29.24,NE,45,3.5,3.5,51,0.00,CLR,OVC,0.00,WeatherDisplay:10.37,2013-01-21 23:19:00,
2013-01-22 10:24:00,88.3,67.3,29.24,NE,45,3.3,3.3,50,0.00,CLR,OVC,0.00,WeatherDisplay:10.37,2013-01-21 23:24:00,
2013-01-22 10:29:00,88.7,68.2,29.24,NE,45,4.6,4.6,51,0.00,CLR,OVC,0.00,WeatherDisplay:10.37,2013-01-21 23:29:00,
2013-01-22 10:34:00,90.0,68.8,29.20,ENE,68,3.5,3.5,50,0.00,CLR,OVC,0.00,WeatherDisplay:10.37,2013-01-21 23:34:00,
2013-01-22 10:39:00,90.3,67.4,29.20,NW,315,3.5,3.5,47,0.00,CLR,OVC,0.00,WeatherDisplay:10.37,2013-01-21 23:39:00,
2013-01-22 10:44:00,90.7,67.7,29.20,WNW,292,2.3,2.4,47,0.00,CLR,OVC,0.00,WeatherDisplay:10.37,2013-01-21 23:44:00,
2013-01-22 10:49:00,90.7,67.1,29.24,NE,45,4.3,4.3,46,0.00,CLR,OVC,0.00,WeatherDisplay:10.37,2013-01-21 23:49:00,
2013-01-22 10:54:00,91.0,68.0,29.24,NW,315,3.5,3.5,47,0.00,CLR,OVC,0.00,WeatherDisplay:10.37,2013-01-21 23:54:00,
2013-01-22 10:59:00,91.8,67.4,29.24,NNW,338,5.8,5.8,45,0.00,CLR,OVC,0.00,WeatherDisplay:10.37,2013-01-21 23:59:00,
2013-01-22 11:04:00,91.6,66.6,29.20,NNW,338,3.5,3.5,44,0.00,CLR,OVC,0.00,WeatherDisplay:10.37,2013-01-22 00:04:00,
2013-01-22 11:09:00,91.9,66.9,29.20,North,0,6.9,6.9,44,0.00,CLR,OVC,0.00,WeatherDisplay:10.37,2013-01-22 00:09:00,
2013-01-22 11:14:00,92.1,66.4,29.20,WNW,292,2.3,2.3,43,0.00,CLR,OVC,0.00,WeatherDisplay:10.37,2013-01-22 00:14:00,
2013-01-22 11:19:00,92.8,67.1,29.20,North,0,2.4,2.4,43,0.00,CLR,OVC,0.00,WeatherDisplay:10.37,2013-01-22 00:19:00,
2013-01-22 11:24:00,93.6,67.7,29.20,NNE,22,3.5,3.5,43,0.00,CLR,OVC,0.00,WeatherDisplay:10.37,2013-01-22 00:24:00,
2013-01-22 11:29:00,93.7,66.5,29.20,NNE,22,3.5,3.5,41,0.00,CLR,OVC,0.00,WeatherDisplay:10.37,2013-01-22 00:29:00,
2013-01-22 11:34:00,94.1,67.5,29.18,South,180,5.8,5.8,42,0.00,CLR,OVC,0.00,WeatherDisplay:10.37,2013-01-22 00:34:00,
2013-01-22 11:39:00,95.5,68.1,29.18,NE,45,2.3,2.3,41,0.00,CLR,OVC,0.00,WeatherDisplay:10.37,2013-01-22 00:39:00,
2013-01-22 11:44:00,95.5,66.6,29.18,South,180,2.3,2.3,39,0.00,CLR,OVC,0.00,WeatherDisplay:10.37,2013-01-22 00:44:00,
2013-01-22 11:49:00,95.7,66.8,29.20,West,270,2.3,2.3,39,0.00,CLR,OVC,0.00,WeatherDisplay:10.37,2013-01-22 00:49:00,
2013-01-22 11:54:00,96.1,65.6,29.20,NW,315,4.9,4.9,37,0.00,CLR,OVC,0.00,WeatherDisplay:10.37,2013-01-22 00:54:00,
2013-01-22 11:59:00,94.8,64.5,29.20,NNW,338,2.0,2.0,37,0.00,CLR,OVC,0.00,WeatherDisplay:10.37,2013-01-22 00:59:00,
2013-01-22 12:04:00,94.5,64.9,29.20,NW,315,4.6,4.6,38,0.00,CLR,OVC,0.00,WeatherDisplay:10.37,2013-01-22 01:04:00,
2013-01-22 12:09:00,94.8,66.0,29.20,WNW,292,6.0,6.0,39,0.00,CLR,OVC,0.00,WeatherDisplay:10.37,2013-01-22 01:09:00,
2013-01-22 12:14:00,94.8,66.0,29.20,NW,315,3.6,3.6,39,0.00,CLR,OVC,0.00,WeatherDisplay:10.37,2013-01-22 01:14:00,
2013-01-22 12:19:00,95.5,65.1,29.18,NNE,22,4.6,4.6,37,0.00,CLR,OVC,0.00,WeatherDisplay:10.37,2013-01-22 01:19:00,
2013-01-22 12:24:00,95.9,66.2,29.18,SSE,158,6.0,6.0,38,0.00,CLR,OVC,0.00,WeatherDisplay:10.37,2013-01-22 01:24:00,
2013-01-22 12:29:00,96.3,66.5,29.18,NW,315,4.7,4.7,38,0.00,CLR,OVC,0.00,WeatherDisplay:10.37,2013-01-22 01:29:00,
2013-01-22 12:34:00,97.0,66.4,29.18,West,270,5.8,5.8,37,0.00,CLR,OVC,0.00,WeatherDisplay:10.37,2013-01-22 01:34:00,
2013-01-22 12:39:00,97.5,66.9,29.18,SSW,202,8.1,8.1,37,0.00,CLR,OVC,0.00,WeatherDisplay:10.37,2013-01-22 01:39:00,
2013-01-22 12:44:00,97.7,66.2,29.18,ENE,68,3.5,3.5,36,0.00,CLR,OVC,0.00,WeatherDisplay:10.37,2013-01-22 01:44:00,
2013-01-22 12:49:00,97.5,66.1,29.15,WNW,292,6.9,6.9,36,0.00,CLR,OVC,0.00,WeatherDisplay:10.37,2013-01-22 01:49:00,
2013-01-22 12:54:00,97.5,66.9,29.15,ENE,68,3.5,3.5,37,0.00,CLR,OVC,0.00,WeatherDisplay:10.37,2013-01-22 01:54:00,
2013-01-22 12:59:00,96.8,65.4,29.15,ESE,112,2.3,2.4,36,0.00,CLR,OVC,0.00,WeatherDisplay:10.37,2013-01-22 01:59:00,
2013-01-22 13:04:00,95.4,64.2,29.15,NW,315,3.5,3.5,36,0.00,CLR,OVC,0.00,WeatherDisplay:10.37,2013-01-22 02:04:00,
2013-01-22 13:09:00,95.0,64.6,29.15,WNW,292,1.2,1.4,37,0.00,CLR,OVC,0.00,WeatherDisplay:10.37,2013-01-22 02:09:00,
2013-01-22 13:14:00,94.6,64.3,29.15,ENE,68,1.2,1.2,37,0.00,CLR,OVC,0.00,WeatherDisplay:10.37,2013-01-22 02:14:00,
2013-01-22 13:19:00,95.2,65.6,29.15,NW,315,4.6,4.6,38,0.00,CLR,OVC,0.00,WeatherDisplay:10.37,2013-01-22 02:19:00,
2013-01-22 13:24:00,96.1,65.6,29.15,NNW,338,2.3,2.3,37,0.00,CLR,OVC,0.00,WeatherDisplay:10.37,2013-01-22 02:24:00,
2013-01-22 13:29:00,96.6,66.1,29.15,NW,315,4.0,4.0,37,0.00,CLR,OVC,0.00,WeatherDisplay:10.37,2013-01-22 02:29:00,
2013-01-22 13:34:00,96.8,65.4,29.15,North,0,3.5,3.5,36,0.00,CLR,OVC,0.00,WeatherDisplay:10.37,2013-01-22 02:34:00,
2013-01-22 13:39:00,97.2,65.8,29.15,NNE,22,4.6,4.6,36,0.00,CLR,OVC,0.00,WeatherDisplay:10.37,2013-01-22 02:39:00,
2013-01-22 13:44:00,97.0,65.6,29.15,NNE,22,3.5,3.5,36,0.00,CLR,OVC,0.00,WeatherDisplay:10.37,2013-01-22 02:44:00,
2013-01-22 13:49:00,97.0,64.8,29.12,NNE,22,1.2,1.2,35,0.00,CLR,OVC,0.00,WeatherDisplay:10.37,2013-01-22 02:49:00,
2013-01-22 13:54:00,97.5,66.1,29.12,NNW,338,4.6,4.6,36,0.00,CLR,OVC,0.00,WeatherDisplay:10.37,2013-01-22 02:54:00,
2013-01-22 13:59:00,97.9,66.4,29.12,NNW,338,2.3,2.3,36,0.00,CLR,OVC,0.00,WeatherDisplay:10.37,2013-01-22 02:59:00,
2013-01-22 14:04:00,98.1,64.9,29.09,NNE,22,3.5,3.5,34,0.00,CLR,OVC,0.00,WeatherDisplay:10.37,2013-01-22 03:04:00,
2013-01-22 14:10:00,97.9,64.7,29.09,NNW,338,3.5,3.5,34,0.00,CLR,OVC,0.00,WeatherDisplay:10.37,2013-01-22 03:10:00,
2013-01-22 14:15:00,96.8,63.8,29.09,NNE,22,3.5,3.5,34,0.00,CLR,OVC,0.00,WeatherDisplay:10.37,2013-01-22 03:15:00,
2013-01-22 14:20:00,97.0,64.0,29.06,NNE,22,3.5,3.5,34,0.00,CLR,OVC,0.00,WeatherDisplay:10.37,2013-01-22 03:20:00,
2013-01-22 14:25:00,96.8,63.0,29.06,East,90,3.5,3.5,33,0.00,CLR,OVC,0.00,WeatherDisplay:10.37,2013-01-22 03:25:00,
2013-01-22 14:30:00,96.8,63.0,29.06,NNE,22,2.3,2.3,33,0.00,CLR,OVC,0.00,WeatherDisplay:10.37,2013-01-22 03:30:00,
2013-01-22 14:35:00,96.1,62.3,29.12,NE,45,1.6,0.0,33,0.00,CLR,OVC,0.00,WeatherDisplay:10.37,2013-01-22 03:35:00,
2013-01-22 14:40:00,96.4,62.6,29.12,NE,45,2.3,2.3,33,0.00,CLR,OVC,0.00,WeatherDisplay:10.37,2013-01-22 03:40:00,
2013-01-22 14:45:00,96.3,62.5,29.12,NE,45,3.5,3.5,33,0.00,CLR,OVC,0.00,WeatherDisplay:10.37,2013-01-22 03:45:00,
2013-01-22 14:50:00,95.9,61.3,29.09,NNE,22,4.6,4.6,32,0.00,CLR,OVC,0.00,WeatherDisplay:10.37,2013-01-22 03:50:00,
2013-01-22 14:55:00,95.9,61.3,29.09,NNE,22,3.8,3.8,32,0.00,CLR,OVC,0.00,WeatherDisplay:10.37,2013-01-22 03:55:00,
2013-01-22 15:00:00,95.9,60.4,29.09,NE,45,3.5,3.5,31,0.00,CLR,OVC,0.00,WeatherDisplay:10.37,2013-01-22 04:00:00,
2013-01-22 15:05:00,96.6,61.9,29.09,NE,45,3.5,3.5,32,0.00,CLR,OVC,0.00,WeatherDisplay:10.37,2013-01-22 04:05:00,
2013-01-22 15:10:00,96.4,60.9,29.09,NE,45,4.6,4.6,31,0.00,CLR,OVC,0.00,WeatherDisplay:10.37,2013-01-22 04:10:00,
2013-01-22 15:15:00,95.9,61.3,29.09,NE,45,3.6,3.6,32,0.00,CLR,OVC,0.00,WeatherDisplay:10.37,2013-01-22 04:15:00,
2013-01-22 15:20:00,95.7,60.2,29.06,NE,45,2.3,2.3,31,0.00,CLR,OVC,0.00,WeatherDisplay:10.37,2013-01-22 04:20:00,
2013-01-22 15:25:00,96.3,61.6,29.06,NE,45,2.6,2.6,32,0.00,CLR,OVC,0.00,WeatherDisplay:10.37,2013-01-22 04:25:00,
2013-01-22 15:30:00,95.5,61.9,29.06,NE,45,3.5,3.5,33,0.00,CLR,OVC,0.00,WeatherDisplay:10.37,2013-01-22 04:30:00,
2013-01-22 15:35:00,94.8,61.2,29.06,SSE,158,5.8,5.8,33,0.00,CLR,OVC,0.00,WeatherDisplay:10.37,2013-01-22 04:35:00,
2013-01-22 15:40:00,94.5,61.8,29.06,NE,45,2.6,2.6,34,0.00,CLR,OVC,0.00,WeatherDisplay:10.37,2013-01-22 04:40:00,
2013-01-22 15:45:00,93.7,61.1,29.06,East,90,2.4,2.4,34,0.00,CLR,OVC,0.00,WeatherDisplay:10.37,2013-01-22 04:45:00,
2013-01-22 15:50:00,93.0,61.3,29.03,NE,45,3.5,3.5,35,0.00,CLR,OVC,0.00,WeatherDisplay:10.37,2013-01-22 04:50:00,
2013-01-22 15:55:00,92.8,61.2,29.03,East,90,3.5,3.5,35,0.00,CLR,OVC,0.00,WeatherDisplay:10.37,2013-01-22 04:55:00,
2013-01-22 16:00:00,92.3,61.5,29.03,ESE,112,2.3,2.3,36,0.00,CLR,OVC,0.00,WeatherDisplay:10.37,2013-01-22 05:00:00,
2013-01-22 16:01:00,92.1,61.3,29.03,SSE,158,6.0,6.0,36,0.00,CLR,OVC,0.00,WeatherDisplay:10.37,2013-01-22 05:01:00,
2013-01-22 16:06:00,91.6,61.6,29.03,ESE,112,4.6,4.6,37,0.00,CLR,OVC,0.00,WeatherDisplay:10.37,2013-01-22 05:06:00,
2013-01-22 16:11:00,91.2,62.1,29.03,ESE,112,2.3,2.3,38,0.00,CLR,OVC,0.00,WeatherDisplay:10.37,2013-01-22 05:11:00,
2013-01-22 16:16:00,90.9,61.7,29.06,South,180,2.3,2.3,38,0.00,CLR,OVC,0.00,WeatherDisplay:10.37,2013-01-22 05:16:00,
2013-01-22 16:21:00,90.9,61.7,29.06,SE,135,4.6,4.6,38,0.00,CLR,OVC,0.00,WeatherDisplay:10.37,2013-01-22 05:21:00,
2013-01-22 16:26:00,90.0,61.7,29.06,NW,315,10.4,10.4,39,0.00,CLR,OVC,0.00,WeatherDisplay:10.37,2013-01-22 05:26:00,
2013-01-22 16:31:00,87.4,63.5,29.09,WNW,292,2.4,2.4,45,0.00,CLR,OVC,0.00,WeatherDisplay:10.37,2013-01-22 05:31:00,
2013-01-22 16:36:00,85.8,63.9,29.09,SW,225,3.5,3.5,48,0.04,RA,OVC,0.04,WeatherDisplay:10.37,2013-01-22 05:36:00,
2013-01-22 16:44:00,82.9,63.5,29.09,NNE,22,12.7,12.7,52,0.04,,OVC,0.04,WeatherDisplay:10.37,2013-01-22 05:44:00,
2013-01-22 16:49:00,81.1,63.4,29.15,NNW,338,6.9,6.9,55,0.04,CLR,OVC,0.04,WeatherDisplay:10.37,2013-01-22 05:49:00,
2013-01-22 16:54:00,79.9,64.3,29.15,West,270,5.8,5.8,59,0.04,CLR,OVC,0.04,WeatherDisplay:10.37,2013-01-22 05:54:00,
2013-01-22 16:59:00,79.7,63.6,29.15,WNW,292,6.9,6.9,58,0.04,CLR,OVC,0.04,WeatherDisplay:10.37,2013-01-22 05:59:00,
2013-01-22 17:04:00,79.2,63.1,29.15,SW,225,6.9,6.9,58,0.04,CLR,OVC,0.04,WeatherDisplay:10.37,2013-01-22 06:04:00,
2013-01-22 17:09:00,79.2,63.1,29.15,SSW,202,2.3,2.4,58,0.37,RA,OVC,0.37,WeatherDisplay:10.37,2013-01-22 06:09:00,
2013-01-22 17:14:00,79.3,64.7,29.15,WSW,248,3.5,3.5,61,0.37,RA,OVC,0.37,WeatherDisplay:10.37,2013-01-22 06:14:00,
2013-01-22 17:19:00,79.0,65.3,29.15,ESE,112,1.2,1.2,63,0.37,,OVC,0.37,WeatherDisplay:10.37,2013-01-22 06:19:00,
2013-01-22 17:24:00,78.3,66.0,29.15,East,90,0.0,0.0,66,0.37,CLR,OVC,0.37,WeatherDisplay:10.37,2013-01-22 06:24:00,
2013-01-22 17:29:00,77.4,65.5,29.15,ESE,112,2.6,2.6,67,0.37,CLR,OVC,0.37,WeatherDisplay:10.37,2013-01-22 06:29:00,
2013-01-22 17:34:00,77.0,65.2,29.15,SSE,158,2.3,2.3,67,0.37,RA,OVC,0.41,WeatherDisplay:10.37,2013-01-22 06:34:00,
2013-01-22 17:39:00,76.5,65.5,29.15,ESE,112,3.5,3.5,69,0.37,RA,OVC,0.41,WeatherDisplay:10.37,2013-01-22 06:39:00,
2013-01-22 17:44:00,75.6,65.1,29.15,ESE,112,3.5,3.5,70,0.37,CLR,OVC,0.41,WeatherDisplay:10.37,2013-01-22 06:44:00,
2013-01-22 17:49:00,75.2,64.7,29.15,ESE,112,4.0,4.0,70,0.37,CLR,OVC,0.41,WeatherDisplay:10.37,2013-01-22 06:49:00,
2013-01-22 17:54:00,74.1,64.5,29.15,NE,45,5.4,5.4,72,0.43,RA,OVC,0.46,WeatherDisplay:10.37,2013-01-22 06:54:00,
2013-01-22 17:59:00,73.8,64.6,29.15,WNW,292,2.3,2.3,73,0.43,RA,OVC,0.46,WeatherDisplay:10.37,2013-01-22 06:59:00,
2013-01-22 18:04:00,73.9,64.7,29.12,ENE,68,4.6,4.6,73,0.43,,OVC,0.46,WeatherDisplay:10.37,2013-01-22 07:04:00,
2013-01-22 18:09:00,73.6,64.0,29.12,NW,315,3.5,3.5,72,0.09,CLR,OVC,0.46,WeatherDisplay:10.37,2013-01-22 07:09:00,
2013-01-22 18:14:00,73.6,64.8,29.12,NE,45,4.6,4.6,74,0.09,CLR,OVC,0.46,WeatherDisplay:10.37,2013-01-22 07:14:00,
2013-01-22 18:19:00,73.0,63.9,29.12,West,270,2.4,2.4,73,0.09,CLR,OVC,0.46,WeatherDisplay:10.37,2013-01-22 07:19:00,
2013-01-22 18:24:00,73.2,63.6,29.12,North,0,2.4,2.4,72,0.09,CLR,OVC,0.46,WeatherDisplay:10.37,2013-01-22 07:24:00,
2013-01-22 18:29:00,73.4,63.0,29.12,SW,225,2.9,0.0,70,0.09,CLR,OVC,0.46,WeatherDisplay:10.37,2013-01-22 07:29:00,
2013-01-22 18:34:00,73.8,63.8,29.15,SSW,202,1.2,1.2,71,0.05,CLR,OVC,0.46,WeatherDisplay:10.37,2013-01-22 07:34:00,
2013-01-22 18:39:00,73.9,63.9,29.15,WSW,248,2.9,0.0,71,0.05,CLR,OVC,0.46,WeatherDisplay:10.37,2013-01-22 07:39:00,
2013-01-22 18:44:00,73.9,63.5,29.15,SW,225,2.3,2.3,70,0.05,CLR,OVC,0.46,WeatherDisplay:10.37,2013-01-22 07:44:00,
2013-01-22 18:49:00,74.1,64.5,29.20,West,270,3.5,3.5,72,0.05,CLR,OVC,0.46,WeatherDisplay:10.37,2013-01-22 07:49:00,
2013-01-22 18:54:00,74.1,64.1,29.20,WSW,248,4.6,4.6,71,0.00,CLR,OVC,0.46,WeatherDisplay:10.37,2013-01-22 07:54:00,
2013-01-22 18:59:00,74.1,64.1,29.20,SW,225,3.5,3.5,71,0.00,CLR,OVC,0.46,WeatherDisplay:10.37,2013-01-22 07:59:00,
2013-01-22 19:04:00,73.9,64.3,29.24,SSW,202,2.3,2.3,72,0.00,CLR,OVC,0.46,WeatherDisplay:10.37,2013-01-22 08:04:00,
2013-01-22 19:09:00,73.9,65.1,29.24,ENE,68,0.0,0.0,74,0.00,CLR,OVC,0.46,WeatherDisplay:10.37,2013-01-22 08:09:00,
2013-01-22 19:14:00,73.9,64.7,29.24,SSW,202,0.0,0.0,73,0.00,CLR,OVC,0.46,WeatherDisplay:10.37,2013-01-22 08:14:00,
2013-01-22 19:19:00,73.9,64.7,29.26,SSW,202,0.0,0.0,73,0.00,CLR,OVC,0.46,WeatherDisplay:10.37,2013-01-22 08:19:00,
2013-01-22 19:24:00,74.1,64.9,29.26,SSW,202,0.0,0.0,73,0.00,CLR,OVC,0.46,WeatherDisplay:10.37,2013-01-22 08:24:00,
2013-01-22 19:29:00,74.3,65.5,29.26,SSW,202,0.0,0.0,74,0.00,CLR,OVC,0.46,WeatherDisplay:10.37,2013-01-22 08:29:00,
2013-01-22 19:34:00,74.3,65.1,29.24,SW,225,0.0,0.0,73,0.00,CLR,OVC,0.46,WeatherDisplay:10.37,2013-01-22 08:34:00,
2013-01-22 19:39:00,74.3,65.5,29.24,SSW,202,0.0,0.0,74,0.00,CLR,OVC,0.46,WeatherDisplay:10.37,2013-01-22 08:39:00,
2013-01-22 19:44:00,74.3,65.9,29.24,SSW,202,0.0,0.0,75,0.00,CLR,OVC,0.46,WeatherDisplay:10.37,2013-01-22 08:44:00,
2013-01-22 19:49:00,74.1,65.7,29.26,WNW,292,2.3,2.3,75,0.00,CLR,OVC,0.46,WeatherDisplay:10.37,2013-01-22 08:49:00,
2013-01-22 19:54:00,73.9,65.9,29.26,West,270,0.0,0.0,76,0.00,CLR,OVC,0.46,WeatherDisplay:10.37,2013-01-22 08:54:00,
2013-01-22 19:59:00,73.8,65.7,29.26,SE,135,0.0,0.0,76,0.00,CLR,OVC,0.46,WeatherDisplay:10.37,2013-01-22 08:59:00,
2013-01-22 20:04:00,73.8,65.7,29.26,ESE,112,0.0,0.0,76,0.00,CLR,OVC,0.46,WeatherDisplay:10.37,2013-01-22 09:04:00,
2013-01-22 20:09:00,73.6,65.5,29.26,ESE,112,0.0,0.0,76,0.00,CLR,OVC,0.46,WeatherDisplay:10.37,2013-01-22 09:09:00,
2013-01-22 20:14:00,73.6,65.5,29.26,ESE,112,0.0,0.0,76,0.00,CLR,OVC,0.46,WeatherDisplay:10.37,2013-01-22 09:14:00,
2013-01-22 20:19:00,73.6,65.5,29.26,ESE,112,0.0,0.0,76,0.00,CLR,OVC,0.46,WeatherDisplay:10.37,2013-01-22 09:19:00,
2013-01-22 20:24:00,73.6,65.5,29.26,ESE,112,0.0,0.0,76,0.00,CLR,OVC,0.46,WeatherDisplay:10.37,2013-01-22 09:24:00,
2013-01-22 20:29:00,73.6,65.5,29.26,ESE,112,0.0,0.0,76,0.00,CLR,OVC,0.46,WeatherDisplay:10.37,2013-01-22 09:29:00,
2013-01-22 20:34:00,73.6,65.5,29.26,ESE,112,0.0,0.0,76,0.00,CLR,OVC,0.46,WeatherDisplay:10.37,2013-01-22 09:34:00,
2013-01-22 20:39:00,73.6,65.5,29.26,ESE,112,0.0,0.0,76,0.00,CLR,OVC,0.46,WeatherDisplay:10.37,2013-01-22 09:39:00,
2013-01-22 20:44:00,73.6,65.5,29.26,ESE,112,0.0,0.0,76,0.00,CLR,OVC,0.46,WeatherDisplay:10.37,2013-01-22 09:44:00,
2013-01-22 20:49:00,73.6,65.5,29.26,ESE,112,0.0,0.0,76,0.00,CLR,OVC,0.46,WeatherDisplay:10.37,2013-01-22 09:49:00,
2013-01-22 20:54:00,73.6,65.5,29.26,ESE,112,0.0,0.0,76,0.00,CLR,OVC,0.46,WeatherDisplay:10.37,2013-01-22 09:54:00,
2013-01-22 20:59:00,73.6,65.5,29.26,ESE,112,0.0,0.0,76,0.00,CLR,OVC,0.46,WeatherDisplay:10.37,2013-01-22 09:59:00,
2013-01-22 21:04:00,73.6,65.5,29.26,ESE,112,0.0,0.0,76,0.00,CLR,OVC,0.46,WeatherDisplay:10.37,2013-01-22 10:04:00,
2013-01-22 21:09:00,73.6,65.5,29.26,ESE,112,0.0,0.0,76,0.00,CLR,OVC,0.46,WeatherDisplay:10.37,2013-01-22 10:09:00,
2013-01-22 21:14:00,73.6,65.5,29.26,ESE,112,0.0,0.0,76,0.00,CLR,OVC,0.46,WeatherDisplay:10.37,2013-01-22 10:14:00,
2013-01-22 21:19:00,73.6,65.5,29.26,ESE,112,0.0,0.0,76,0.00,CLR,OVC,0.46,WeatherDisplay:10.37,2013-01-22 10:19:00,
2013-01-22 21:24:00,73.6,65.5,29.26,ESE,112,0.0,0.0,76,0.00,CLR,OVC,0.46,WeatherDisplay:10.37,2013-01-22 10:24:00,
2013-01-22 21:29:00,73.6,65.5,29.26,ESE,112,0.0,0.0,76,0.00,CLR,OVC,0.46,WeatherDisplay:10.37,2013-01-22 10:29:00,
2013-01-22 21:34:00,73.6,65.5,29.26,ESE,112,0.0,0.0,76,0.00,CLR,OVC,0.46,WeatherDisplay:10.37,2013-01-22 10:34:00,
2013-01-22 21:39:00,73.6,65.5,29.26,ESE,112,0.0,0.0,76,0.00,CLR,OVC,0.46,WeatherDisplay:10.37,2013-01-22 10:39:00,
2013-01-22 21:44:00,73.6,65.5,29.26,ESE,112,0.0,0.0,76,0.00,CLR,OVC,0.46,WeatherDisplay:10.37,2013-01-22 10:44:00,
2013-01-22 21:49:00,73.6,65.5,29.26,ESE,112,0.0,0.0,76,0.00,CLR,OVC,0.46,WeatherDisplay:10.37,2013-01-22 10:49:00,
2013-01-22 21:54:00,73.6,65.5,29.26,ESE,112,0.0,0.0,76,0.00,CLR,OVC,0.46,WeatherDisplay:10.37,2013-01-22 10:54:00,
2013-01-22 21:59:00,73.6,65.5,29.26,ESE,112,0.0,0.0,76,0.00,CLR,OVC,0.46,WeatherDisplay:10.37,2013-01-22 10:59:00,
2013-01-22 22:04:00,73.6,65.5,29.26,ESE,112,0.0,0.0,76,0.00,CLR,OVC,0.46,WeatherDisplay:10.37,2013-01-22 11:04:00,
2013-01-22 22:09:00,73.6,65.5,29.26,ESE,112,0.0,0.0,76,0.00,CLR,OVC,0.46,WeatherDisplay:10.37,2013-01-22 11:09:00,
2013-01-22 22:14:00,73.6,65.5,29.26,ESE,112,0.0,0.0,76,0.00,CLR,OVC,0.46,WeatherDisplay:10.37,2013-01-22 11:14:00,
2013-01-22 22:19:00,73.6,65.5,29.26,ESE,112,0.0,0.0,76,0.00,CLR,OVC,0.46,WeatherDisplay:10.37,2013-01-22 11:19:00,
2013-01-22 22:24:00,73.6,65.5,29.26,ESE,112,0.0,0.0,76,0.00,CLR,OVC,0.46,WeatherDisplay:10.37,2013-01-22 11:24:00,
2013-01-22 22:29:00,73.6,65.5,29.26,ESE,112,0.0,0.0,76,0.00,CLR,OVC,0.46,WeatherDisplay:10.37,2013-01-22 11:29:00,
2013-01-22 22:34:00,73.6,65.5,29.26,ESE,112,0.0,0.0,76,0.00,CLR,OVC,0.46,WeatherDisplay:10.37,2013-01-22 11:34:00,
2013-01-22 22:39:00,71.4,64.2,29.26,ESE,112,0.0,0.0,78,0.00,CLR,OVC,0.46,WeatherDisplay:10.37,2013-01-22 11:39:00,
2013-01-22 22:44:00,71.2,64.4,29.26,ESE,112,0.0,0.0,79,0.00,CLR,OVC,0.46,WeatherDisplay:10.37,2013-01-22 11:44:00,
2013-01-22 22:49:00,71.2,64.4,29.26,ESE,112,0.0,0.0,79,0.00,CLR,OVC,0.46,WeatherDisplay:10.37,2013-01-22 11:49:00,
2013-01-22 22:54:00,71.1,64.2,29.26,ESE,112,0.0,0.0,79,0.00,CLR,OVC,0.46,WeatherDisplay:10.37,2013-01-22 11:54:00,
2013-01-22 22:59:00,71.1,64.2,29.26,West,270,0.0,0.0,79,0.00,CLR,OVC,0.46,WeatherDisplay:10.37,2013-01-22 11:59:00,
2013-01-22 23:04:00,71.1,64.2,29.26,West,270,0.0,0.0,79,0.00,CLR,OVC,0.46,WeatherDisplay:10.37,2013-01-22 12:04:00,
2013-01-22 23:09:00,71.1,64.2,29.26,West,270,0.0,0.0,79,0.00,CLR,OVC,0.46,WeatherDisplay:10.37,2013-01-22 12:09:00,
2013-01-22 23:14:00,71.1,64.2,29.26,West,270,0.0,0.0,79,0.00,CLR,OVC,0.46,WeatherDisplay:10.37,2013-01-22 12:14:00,
2013-01-22 23:19:00,71.1,64.2,29.26,West,270,0.0,0.0,79,0.00,CLR,OVC,0.46,WeatherDisplay:10.37,2013-01-22 12:19:00,
2013-01-22 23:24:00,70.7,64.2,29.26,ESE,112,0.0,0.0,80,0.00,CLR,OVC,0.46,WeatherDisplay:10.37,2013-01-22 12:24:00,
2013-01-22 23:29:00,70.5,64.0,29.26,ESE,112,0.0,0.0,80,0.00,CLR,OVC,0.46,WeatherDisplay:10.37,2013-01-22 12:29:00,
2013-01-22 23:34:00,70.5,64.0,29.26,ESE,112,0.0,0.0,80,0.00,CLR,OVC,0.46,WeatherDisplay:10.37,2013-01-22 12:34:00,
2013-01-22 23:39:00,70.5,64.0,29.26,ESE,112,0.0,0.0,80,0.00,CLR,OVC,0.46,WeatherDisplay:10.37,2013-01-22 12:39:00,
2013-01-22 23:44:00,70.5,64.0,29.26,WSW,248,0.0,0.0,80,0.00,CLR,OVC,0.46,WeatherDisplay:10.37,2013-01-22 12:44:00,
2013-01-22 23:49:00,70.5,64.4,29.26,SSW,202,0.0,0.0,81,0.00,CLR,OVC,0.46,WeatherDisplay:10.37,2013-01-22 12:49:00,
2013-01-22 23:54:00,70.5,64.4,29.26,SSW,202,0.0,0.0,81,0.00,CLR,OVC,0.46,WeatherDisplay:10.37,2013-01-22 12:54:00,
2013-01-22 23:59:00,70.3,63.9,29.26,SSE,158,0.0,0.0,80,0.00,CLR,OVC,0.46,WeatherDisplay:10.37,2013-01-22 12:59:00,